158P/Kowal-LINEAR (2002)

Japanese version
Home page
Total 6,336 html files since Dec. 4, 1995
Updated on September 21, 2007

---------------------------------------------------------------------

* Profile

Designation 158P/2001 RG100
Rediscovery Date September 12, 2001
Magnitude 19.1 mag
Rediscoverer Lincoln Laboratory Near-Earth Asteroid Research project

* Orbital Elements

Epoch 2002 July 25.0 TT = JDT 2452480.5
T 2002 July 25.61893 TT                                 MPC
q   4.5949872            (2000.0)            P               Q
n   0.09576196     Peri.  235.57304     +0.96950264     -0.22665878
a   4.7315927      Node   137.31333     +0.24444552     +0.92167460
e   0.0288709      Incl.    7.90313     -0.01763579     +0.31486779
P  10.29

* Finding Charts

* Magnitudes Graph

        m1 = 9.2 + 5 log d + 10.0 log r

---------------------------------------------------------------------

The orbital elements are published on M.P.E.C. 2003-W74.
The charts are made with StellaNavigator Ver.2.0 for Windows (AstroArts / ASCII).
The magnitudes graphs are made with Comet for Windows.

---------------------------------------------------------------------

Copyright(C) 1995-2008 Seiichi Yoshida (comet@aerith.net). All rights reserved.